Regional Weather Roundup
Issued by NWS

Home | Current Version | Previous Version | Text Only | Print | Product List | Glossary Off
Versions: 1 2 3 4 5 6 7 8 9 10 11 12 13 14 15 16 17 18 19 20 21 22 23 24 25 26 27 28 29 30 31 32 33 34 35 36 37 38 39 40 41 42 43 44 45 46 47 48 49 50

000
ASUS43 KLOT 100603
RWRIL

ILLINOIS REGIONAL WEATHER ROUNDUP
NATIONAL WEATHER SERVICE CHICAGO/ROMEOVILLE IL
1200 AM CST WED FEB 10 2016

NOTE: "FAIR" INDICATES FEW OR NO CLOUDS BELOW 12,000 FEET WITH NO
SIGNIFICANT WEATHER AND/OR OBSTRUCTIONS TO VISIBILITY.

* THESE STATIONS ARE NOT UNDER NWS QUALITY CONTROL. THEY ALSO MAY NOT
  REPORT WEATHER SUCH AS PRECIPITATION OR FOG.

ILZ001-002-007-009-015-016-024-100700-
NORTHWEST ILLINOIS

CITY           SKY/WX    TMP DP  RH WIND       PRES   REMARKS
MOLINE         CLEAR     12   1  61 NW10      30.09R WCI  -1
6HR MIN TEMP:  12; 6HR MAX TEMP:  15;

STERLING*      CLEAR     12   0  57 NW14      30.01R WCI  -3
$$

ILZ003-004-008-010-011-017-018-100700-
NORTH CENTRAL ILLINOIS

CITY           SKY/WX    TMP DP  RH WIND       PRES   REMARKS
ROCKFORD       CLOUDY    13   2  61 NW10      30.01R WCI   0
6HR MIN TEMP:  13; 6HR MAX TEMP:  15; 6HR PCP: TRACE;

FREEPORT*      PTCLDY    10   1  68 NW13      30.02R WCI  -6
DE KALB*       CLOUDY    13   3  63 NW10G20   29.96S WCI   0
$$

ILZ005-006-012>014-019>023-100700-
NORTHEAST ILLINOIS

CITY           SKY/WX    TMP DP  RH WIND       PRES   REMARKS
CHICAGO-OHARE  CLOUDY    15   5  64 NW16      29.94S WCI  -1
6HR MIN TEMP:  13; 6HR MAX TEMP:  16; 6HR PCP: TRACE;

CHICAGO-MIDWAY FLURRIES  16   5  62 NW17      29.94F WCI   0
6HR MIN TEMP:  15; 6HR MAX TEMP:  18; 6HR PCP: TRACE;

AURORA         PTCLDY    13   4  67 NW13      29.97S WCI  -2
6HR MIN TEMP:  13; 6HR MAX TEMP:  16; 6HR PCP: TRACE;

WAUKEGAN       LGT SNOW  13   6  74 NW9       29.92S WCI   1
6HR MIN TEMP:  13; 6HR MAX TEMP:  15; 6HR PCP: TRACE;

DUPAGE AIRPORT CLOUDY    13   2  61 NW12      29.94F WCI  -1
6HR MIN TEMP:  13; 6HR MAX TEMP:  16; 6HR PCP: TRACE;

WHEELING       CLOUDY    14   5  67 NW15G24   29.95S WCI  -1
6HR MIN TEMP:  14; 6HR MAX TEMP:  16; 6HR PCP: TRACE;

NORTHERLY ISL    N/A     16   8  71 W17         N/A  WCI   0
$$

LMZ740>746-100700-
SOUTHERN LAKE MICHIGAN

STATION/POSITION SKY/WX   TEMP    WIND        PRES    VSBY  WAVE
                          AIR SEA DIR/SP/G                  HT/PER
                          (F)     (DEG/KT/KT) (MB)    (MI)  (FT/S)
HARRISON CRIB              16     300/ 21/ 25   N/A
BURNHAM HARBOR             17     280/  9/ 17   N/A
CALUMET HARBOR             15     290/ 11/ 16 1013.4R
BURNS HARBOR               19     300/ 21     1013.5R
MICHIGAN CITY              20     280/ 24/ 27   N/A
$$

ILZ025>027-034>036-040-047-049-050-058-095>099-100700-
WEST-CENTRAL ILLINOIS

CITY           SKY/WX    TMP DP  RH WIND       PRES   REMARKS
QUINCY         MOCLDY    14   5  67 NW17      30.13S WCI  -3
MACOMB*        CLEAR     11   6  78 NW14      30.12S WCI  -4
$$

ILZ028>032-037-038-041>044-048-051>054-059>061-100700-
CENTRAL ILLINOIS

CITY           SKY/WX    TMP DP  RH WIND       PRES   REMARKS
BLOOMINGTON    PTCLDY    12   4  70 NW16      30.02S WCI  -5
DECATUR        CLOUDY    14   5  67 NW17G24   30.05S WCI  -3
PEORIA         CLEAR     12   3  67 NW9       30.07R WCI   0
6HR MIN TEMP:  12; 6HR MAX TEMP:  16; 6HR PCP: TRACE;

LINCOLN*       CLOUDY    14   8  75 NW7G17    30.07S WCI   4
SPRINGFIELD    CLEAR     14   5  67 NW14      30.09S WCI  -1
6HR MIN TEMP:  14; 6HR MAX TEMP:  19; 6HR PCP: TRACE;

TAYLORVILLE    NOT AVBL
$$

ILZ033-039-045-046-055>057-062-063-100700-
EAST-CENTRAL ILLINOIS

CITY           SKY/WX    TMP DP  RH WIND       PRES   REMARKS
CHAMPAIGN      CLOUDY    15   8  73 NW16      30.01S WCI  -1
MATTOON        CLOUDY    14   5  67 NW18      30.02S WCI  -3
$$

ILZ079-100>102-100700-
SOUTHWEST ILLINOIS

CITY           SKY/WX    TMP DP  RH WIND       PRES   REMARKS
ALTON          PTCLDY    16   6  66 NW12G20   30.13S WCI   3
BELLEVILLE     MOCLDY    19   9  63 NW10G23   30.11S WCI   8
CAHOKIA*       MOCLDY    20   6  55 NW15G23   30.14R WCI   6
SPARTA*        PTCLDY    20   8  61 NW14G20   30.12S WCI   6
$$

ILZ064>066-069>071-074>076-080>082-084>086-088>090-092>094-100700-
SOUTH-CENTRAL ILLINOIS

CITY           SKY/WX    TMP DP  RH WIND       PRES   REMARKS
CARBONDALE     LGT SNOW  21  16  81 NW7       30.12R WCI  12
6HR MIN TEMP:  16; 6HR MAX TEMP:  22; 6HR PCP: TRACE;

MARION         CLOUDY    21  14  73 N5        30.12R WCI  15
MT. VERNON     CLEAR     18   3  53 NW7       30.09S WCI   8
CENTRALIA*     PTCLDY    18   8  63 NW18G26   30.09S WCI   2
SALEM*         MOCLDY    17   7  63 NW13      30.09S WCI   4
$$

ILZ067-068-072-073-078-083-087-091-100700-
SOUTHEAST ILLINOIS

CITY           SKY/WX    TMP DP  RH WIND       PRES   REMARKS
LAWRENCEVILLE  CLOUDY    18  10  71 NW15      30.05S WCI   4
HARRISBURG*    MOCLDY    18  12  77 W5        30.11S WCI  11
$$

ABBREVIATIONS USED IN REMARKS
   TC - TEMPERATURE IN CELSIUS
  WCI - WIND CHILL INDEX
   HX - HEAT INDEX
  VSB - VISIBILITY
$$




USA.gov is the U.S. government's official web portal to all federal, state and local government web resources and services.